STARLINK-32276, 60944

Orbit data source: Space-Track

STARLINK-32276, 60944 is a payload satellite owned by SpaceX/Seattle (US) in LEO that was launched on Sat, 31 Aug 2024 UTC via an FALCON 9 launch vehicle from the Air Force Western Test Range (AFWTR). Payload-class satellites include a variety of spacecraft equipped with specific instruments for various scientific and technological missions. These include communications satellites like Starlink; space stations such as the ISS; scientific satellites like the Hubble; Earth observation satellites from companies like Planet Labs, Umbra, and HawkEye 360; GPS; miniature CubeSats for education and research; and military/defense satellites.

Loading next visibility...
Identifier
60944, 2024-155W
Orbit
LEO
Country
Flag of USUS
Related business
Manufacturer
SpaceX/Seattle
Mission
Operational Commercial Communications
Bus & Motor
STARLINK V2M, Unknown motor
Mass
730 kg wet, ~700 kg dry
Launch date (UTC)
2024-08-31 (2 years ago)
Launch vehicle
FALCON 9
Launch site
Air Force Western Test Range (AFWTR)
Object type
Payload
Rocket body
Debris
Shape & HBR
Box + 2 Pan, 17.7 m
Radar Cross Section
33.884 m², Large (>1 m²)

Expand to show TLE details & history
Last TLE update: 1 day ago

TLE from 1 day ago
0 STARLINK-32276
1 60944U 24155W   26170.84974927  .00002791  00000-0  93637-4 0  9997
2 60944  53.1620  15.0293 0000842 110.8081 249.3012 15.34416910102036
Epoch: 2026-06-19T20:23Z
TLE epoch observation values (Epoch: 2026-06-19T20:23:38.336Z)
Latitude
-0.00003°
Longitude
161.04672°
Altitude
463.758 km
Speed
7.636 km/s
True Right ascension
01h 00m 07s
True Declination
0° 00' 00"
Sunlit
Object was in daylight at epoch
Visualization orbit readout
Latitude
Unknown
Longitude
Unknown
Altitude
Unknown
Speed
Unknown
Apparent Right ascension
Unknown
Apparent Declination
Unknown
Sunlit
N/A
Visualization observer readout
Local Sidereal Time
07:12:54
Azimuth
Unknown
Elevation
Unknown
Doppler factor
Unknown
Orbital elements
Apogee altitude
463.486 km
Perigee altitude
462.334 km
Semi-major axis
6,841.047 km
Eccentricity
0.00008
Inclination
53.162°
RAAN
15.0293°
Arg. of periapsis
110.8081°
True anomaly
249.29217°
Mean anomaly
249.3012°
Eccentric anomaly
249.29669°
Mean motion
3.83583 °/min
Orbital period
93.85 mins
BSTAR
0.000093637
Loading maneuver chart data...
Computing Atmospheric mass density...
Loading historical data...
Loading historical data...
Loading historical data...
Loading historical data...
Loading historical data...
Loading historical data...
Loading historical data...

Documentation

Showing up to 5 results
|